Location: Beadle
(51.4667°N, 109.0000°W)
Time: 04:02:55
(UTC+00:00)

DIWATA 2B (PO-101) - Pass Details

Date: 01 July 2022
Orbit: 583 x 599 km, 98.0° (Epoch: 13 August)

Event Time Altitude Azimuth Distance (km) Brightness Sun altitude
Exits shadow 08:06:04 - 132° (SE) 2,291 ? -14.7°
Reaches altitude 10° 08:07:00 10° 127° (SE) 1,939 ? -14.7°
Maximum altitude 08:10:43 31° 65° (ENE) 1,064 ? -14.6°
Drops below altitude 10° 08:14:27 10° 3° (N) 1,953 ? -14.5°
Sets 08:16:48 0° 353° (N) 2,860 ? -14.4°
